Location: Unspecified
(42.9300°N, 71.1866°W)
Time: 00:43:55
(UTC-04:00)

Cosmos 2058 - Visible Passes

Search period start: 03 September 2014 00:00
Search period end: 13 September 2014 00:00
Orbit: 570 x 595 km, 82.5° (Epoch: 02 September)

Date Brightness Start Highest point End Pass type
(mag) Time Alt. Az. Time Alt. Az. Time Alt. Az.
03 Sep 5.9 23:20:01 10° NNW 23:20:38 14° NNW 23:20:38 14° NNW visible
04 Sep 5.5 21:49:35 10° NNE 21:50:00 12° NNE 21:50:00 12° NNE visible
04 Sep 6.0 23:26:00 10° NNW 23:26:24 12° NNW 23:26:24 12° NNW visible
05 Sep 5.3 21:54:58 10° NNE 21:55:47 14° NNE 21:55:47 14° NNE visible
05 Sep 6.2 23:32:05 10° NW 23:32:10 10° NW 23:32:10 10° NW visible
06 Sep 5.2 22:00:29 10° N 22:01:34 17° NNE 22:01:34 17° NNE visible
07 Sep 5.2 22:06:07 10° N 22:07:22 19° N 22:07:22 19° N visible
08 Sep 5.2 22:11:49 10° N 22:13:10 20° N 22:13:10 20° N visible
09 Sep 5.3 22:17:36 10° N 22:18:59 21° NNW 22:18:59 21° NNW visible
10 Sep 5.3 20:48:05 10° NE 20:48:26 11° NE 20:48:26 11° NE visible
10 Sep 5.4 22:23:27 10° NNW 22:24:49 20° NNW 22:24:49 20° NNW visible
11 Sep 5.0 20:53:06 10° NNE 20:54:17 15° NE 20:54:17 15° NE visible
11 Sep 5.5 22:29:23 10° NNW 22:30:40 18° NW 22:30:40 18° NW visible
12 Sep 4.8 20:58:26 10° NNE 21:00:09 19° NE 21:00:09 19° NE visible
12 Sep 5.7 22:35:26 10° NNW 22:36:32 16° NW 22:36:32 16° NW visible
